Tracking 18945 objects as of 19-Jan-2018
HD Live streaming from Space Station
objects crossing your sky now

FENGYUN 1C DEB

Track FENGYUN 1C DEB now!
10-day predictions


NORAD ID: 31381
Int'l Code: 1999-025BSM
Perigee: 645.1 km
Apogee: 959.5 km
Inclination: 98.6 °
Period: 100.8 minutes
Semi major axis: 7173 km
RCS: 0.0148 m2 (small)
Launch date: May 10, 1999
Source: People's Republic of China (PRC)
Launch site: Taiyaun Space Center, China (TSC)

Note: This is SATELLITE DEBRIS
aabbcc
Your satellite tracking list
Your tracking list is empty




NASA's NSSDC Master Catalog

Two Line Element Set (TLE):
1 31381U 99025BSM 18011.46331321 +.00000184 +00000-0 +72587-4 0  9991
2 31381 098.6464 096.4241 0219128 275.8927 081.7317 14.28972726560381
Source of the keplerian elements: AFSPC